Flag for Germany Weather past 2 weeks in Lahr, Baden-Württemberg, Germany

Now
68 °F

Overcast.


Feels Like: 68 °F
Forecast: 52 / 66 °F
Wind: 2 mph from Northeast

Location: Lahr

Current Time: May 24, 2015 at 8:14:34 PM

Latest Report: May 24, 2015 at 7:00 PM


Visibility: 22 mi

Pressure: 30.01 "Hg

Humidity: 57%

Dew point: 52 °F

Location of LahrLocation

Historic Weather in Lahr — Graph

°F

Lahr temperature yesterday

Maximum temperature yesterday: 68 °F (at 1:00 PM)
Minimum temperature yesterday: 46 °F (at 5:00 AM)
Average temperature yesterday: 58 °F

Past Weeks' High & Low Weather Summary

 TemperatureHumidityPressure
High86 °F (May 12, 4:00 PM)100% (May 16, 5:00 AM)30.37 "Hg (May 16, 5:00 AM)
Low39 °F (May 22, 6:00 AM)28% (May 11, 4:00 PM)29.72 "Hg (May 18, 8:00 PM)
Average59 °F69%30.10 "Hg
* Reported May 9 7:00 PM — May 24 7:00 PM, Lahr, Weather by CustomWeather, © 2015

Note: Actual official high and low records may vary slightly from our data, if they occured in-between our weather recording intervals... More about our weather records

Advertising

Lahr weather history for previous 24 hours

 ConditionsComfort  
Time TempWeatherWind HumidityBarometerVisibility
7:00 PM
Sun, May 24
68 °FOvercast.2 mph57%30.01 "Hg22 mi
6:00 PM68 °FOvercast.2 mph60%30.02 "Hg22 mi
5:00 PM67 °FOvercast.3 mph61%30.03 "Hg15 mi
4:00 PM68 °FOvercast.5 mph56%30.04 "Hg10 mi
3:00 PM69 °FOvercast.5 mph58%30.04 "Hg9 mi
2:00 PM67 °FOvercast.5 mph62%30.05 "Hg10 mi
1:00 PM67 °FOvercast.3 mph60%30.05 "Hg11 mi
12:00 PM66 °FScattered clouds.3 mph54%30.06 "Hg12 mi
11:00 AM65 °FPassing clouds.3 mph61%30.06 "Hg12 mi
10:00 AM63 °FPassing clouds.2 mph67%30.07 "Hg12 mi
9:00 AM59 °FPartly sunny.2 mph77%30.08 "Hg19 mi
8:00 AM57 °FOvercast.2 mph82%30.07 "Hg19 mi
7:00 AM55 °FOvercast.1 mph86%30.06 "Hg19 mi
6:00 AM55 °FOvercast.2 mph85%30.06 "Hg19 mi
5:00 AM56 °FOvercast.1 mph86%30.05 "HgN/A
4:00 AM56 °FOvercast.1 mph79%30.06 "HgN/A
3:00 AM58 °FOvercast.1 mph76%30.06 "HgN/A
2:00 AM58 °FOvercast.1 mph77%30.07 "HgN/A
1:00 AM59 °FOvercast.3 mph68%30.08 "HgN/A
12:00 AM59 °FOvercast.1 mph77%30.08 "HgN/A
11:00 PM
Sat, May 23
59 °FOvercast.3 mph68%30.08 "HgN/A
10:00 PM61 °FOvercast.3 mph63%30.07 "HgN/A
9:00 PM62 °FOvercast.3 mph57%30.06 "Hg34 mi
8:00 PM64 °FOvercast.5 mph52%30.05 "Hg34 mi
Weather by CustomWeather, © 2015

See weather overviewHow to use our weather pages